RH
15 15 16 17 20 22 25 28 29 30 32 31 32 32 32 35 38 40 40 39 41 42 41 41 41 42 43 46 49 50 50 51 51 51 53 54 53 55 56 56 54 46 35 23 15 12 10 9 8 8 7 6 7 7 9 11 13 13 14 14 14 16 18 20 21 20 19 19 21 19 18 20 22 25 40 54 60 63 70 76 79 81 84 85 85
16 19 21 24 26 28 29 31 33 34 35 37 39 40 40 41 43 45 46 47 49 51 52 51 51 51 51 53 54 55 55 55 56 56 56 57 56 58 59 58 58 53 42 29 19 13 11 10 9 9 8 8 7 7 9 11 14 15 16 17 16 17 19 22 23 22 21 19 19 21 20 21 23 24 29 42 53 58 62 68 73 76 80 85 87
20 23 24 26 27 29 31 32 34 34 34 36 38 39 40 43 46 48 50 53 56 60 62 62 61 62 62 63 63 64 64 64 65 64 63 63 62 62 62 62 61 58 50 36 22 14 12 12 11 10 9 9 8 8 10 12 14 16 18 20 19 19 20 23 26 25 23 22 20 20 21 21 23 25 27 32 40 48 54 60 66 69 73 79 84
21 23 25 28 30 32 34 35 35 35 35 36 37 37 38 42 47 50 53 55 59 65 70 72 71 71 72 72 72 73 73 72 72 73 72 71 70 68 68 67 64 62 57 43 26 16 14 14 13 12 11 11 11 9 10 13 16 18 20 22 23 23 24 26 28 29 27 25 23 21 22 21 21 24 26 30 33 36 43 50 56 62 66 71 78
24 26 29 33 35 36 36 36 36 35 34 35 35 35 35 39 45 50 54 56 59 65 71 75 76 77 78 78 79 79 77 76 76 78 79 79 79 78 75 73 70 66 63 51 33 20 16 16 15 14 13 12 13 12 12 14 18 20 22 24 26 28 28 30 32 32 30 29 27 25 24 23 22 23 23 28 33 32 34 39 44 51 57 63 71
31 34 37 38 39 39 37 36 35 33 32 32 31 32 33 37 43 48 51 54 57 62 68 73 75 77 78 79 81 82 80 79 78 79 81 83 86 88 85 81 77 72 68 60 43 25 16 17 18 16 15 14 14 15 15 16 19 23 24 26 29 31 31 34 36 36 35 32 30 28 28 26 24 24 23 24 30 33 33 33 35 42 47 53 62
36 39 41 41 40 37 36 34 32 31 29 27 27 28 30 35 41 45 48 51 54 58 62 66 70 74 76 78 80 82 84 84 82 80 80 84 90 93 92 89 85 80 74 68 55 36 19 15 18 19 17 16 16 17 17 18 20 24 26 28 30 32 33 35 38 40 40 37 34 31 30 29 27 27 27 24 25 29 32 32 32 34 39 44 51
37 40 41 40 38 36 34 33 31 29 27 25 23 22 26 33 40 47 49 51 54 57 58 60 64 70 74 77 78 81 87 89 87 85 83 86 91 94 96 95 93 89 81 75 66 50 29 16 17 22 21 18 18 20 20 21 21 24 27 29 31 32 33 34 37 40 42 42 40 36 32 31 30 30 31 30 27 25 27 31 31 30 33 37 41
40 42 41 38 37 35 34 32 31 29 26 23 21 21 25 32 40 49 54 55 56 57 58 59 63 67 72 76 78 81 86 90 91 90 88 91 93 95 98 98 97 96 90 83 74 61 42 23 16 22 24 21 20 21 23 23 23 24 26 30 31 33 34 34 36 38 42 44 44 43 39 34 32 32 33 34 31 26 23 25 29 30 30 31 33
42 42 40 38 36 35 34 33 31 27 25 22 22 24 26 30 37 46 56 62 63 61 60 62 65 68 71 75 78 81 86 88 89 90 91 94 96 98 100 99 99 99 97 91 82 69 53 33 19 19 25 26 22 22 25 26 26 26 27 29 31 33 34 33 34 36 38 42 45 46 45 41 36 34 34 34 33 30 25 22 24 27 29 30 30
44 42 39 38 37 36 34 33 30 25 24 23 24 25 25 27 31 38 51 62 69 71 69 68 68 70 73 77 77 80 85 87 87 89 91 95 98 100 100 100 99 100 99 96 89 77 60 41 25 19 23 28 26 22 25 27 28 28 28 30 31 33 34 33 34 35 35 38 42 45 47 46 42 37 34 32 32 32 29 26 23 22 24 28 29
43 40 39 38 37 36 34 32 29 24 23 25 26 25 23 23 25 29 40 53 62 70 76 76 76 75 75 77 77 79 83 84 85 87 89 94 98 99 100 99 98 99 100 99 95 85 67 47 32 22 21 28 30 25 24 27 29 30 30 30 32 33 34 34 34 35 35 35 38 42 46 48 47 43 37 32 31 31 30 28 26 23 21 23 27
42 40 39 39 38 37 35 32 29 25 24 25 26 24 21 19 19 21 29 40 48 56 65 73 78 81 81 80 78 79 81 82 83 85 87 93 97 97 98 99 99 99 100 100 98 91 75 53 36 26 21 25 33 31 25 25 28 30 30 30 31 32 32 34 34 34 35 35 36 38 42 46 48 47 42 36 32 31 31 30 28 25 21 20 24
43 42 40 40 39 37 35 33 30 27 25 26 26 23 19 15 15 15 19 29 37 44 51 58 66 75 81 85 84 82 82 82 83 84 87 92 96 96 97 99 100 100 99 100 99 95 81 60 41 31 25 23 31 37 32 26 26 29 29 28 29 30 30 31 33 34 35 36 35 36 39 43 45 47 46 42 35 31 31 32 30 26 21 18 20
43 43 42 41 41 39 37 34 32 29 27 28 28 24 19 15 14 14 15 20 27 34 42 48 54 62 69 78 85 87 85 84 84 85 87 91 95 96 96 98 100 100 100 99 100 98 86 67 48 36 30 25 28 39 40 32 26 27 29 28 26 27 28 28 30 32 34 36 36 35 37 40 42 45 47 46 40 32 30 33 33 30 23 18 16
45 44 43 43 42 40 39 37 34 31 30 33 33 27 22 19 17 17 18 20 24 28 33 39 45 51 57 66 77 86 88 86 86 86 87 90 93 94 95 98 100 100 100 100 100 100 91 75 57 42 34 29 27 36 45 42 33 27 27 28 27 25 25 25 26 28 31 34 36 36 36 38 39 42 46 49 45 37 32 32 34 33 27 20 16
46 46 45 44 43 41 40 38 36 35 35 38 38 34 30 27 25 24 25 26 29 30 31 35 40 45 49 55 65 78 87 90 89 88 87 89 92 92 93 96 100 100 100 100 99 100 97 84 67 51 40 33 29 34 43 49 45 35 28 27 28 27 25 23 24 24 26 29 33 36 37 37 38 40 44 49 50 43 35 32 35 35 30 23 17
48 47 46 44 42 42 41 41 42 44 46 46 44 41 39 38 35 34 34 34 35 34 33 35 38 42 47 53 60 70 81 90 94 93 90 89 91 91 92 95 99 100 100 100 100 101 100 92 77 60 48 37 31 33 40 49 53 48 36 28 27 29 27 25 24 24 24 24 27 33 37 38 38 39 42 48 52 49 39 33 35 37 33 26 19
48 46 46 45 45 45 46 48 50 53 55 54 53 51 48 46 45 43 43 43 43 42 40 36 35 37 41 48 57 67 79 90 97 98 95 92 93 92 93 95 98 100 100 99 101 101 100 97 86 71 57 42 31 33 39 46 54 57 50 37 29 28 28 27 26 26 26 25 25 30 35 38 39 39 41 47 51 51 44 35 35 39 36 28 21
45 45 47 48 51 55 58 59 57 58 60 61 63 61 57 54 53 52 52 51 52 51 50 47 42 38 35 36 43 55 74 89 98 101 99 96 96 96 96 96 97 99 100 99 100 101 100 100 93 81 65 45 32 33 38 44 52 59 60 52 39 32 29 28 29 28 27 27 27 29 35 40 41 40 42 47 51 53 47 39 36 40 38 30 23
42 45 49 52 57 61 61 61 61 63 68 73 74 70 65 61 59 60 61 61 61 61 60 59 56 52 46 38 33 38 56 76 87 96 101 99 98 100 99 97 97 98 100 100 100 100 100 100 98 88 68 47 36 35 39 43 49 58 63 62 53 43 35 31 30 30 29 29 29 30 36 43 44 43 44 48 52 54 50 42 39 41 41 33 25
42 45 48 52 57 59 59 62 67 72 80 85 83 77 72 69 67 69 71 71 71 70 69 68 67 65 60 52 42 34 44 66 77 81 93 100 98 100 101 98 97 99 99 100 100 100 100 100 100 91 70 52 42 39 39 42 48 57 63 65 62 55 46 39 34 33 32 33 32 31 38 46 48 47 48 50 54 56 53 46 41 43 43 36 27
44 50 53 56 59 62 65 70 77 84 89 87 80 74 73 75 77 77 77 79 80 80 80 80 78 76 72 66 58 43 42 65 82 77 79 94 100 99 101 99 98 99 100 100 100 100 99 100 101 93 74 58 49 42 40 42 47 56 62 65 66 63 56 48 41 38 38 38 35 34 40 49 50 50 52 55 57 59 57 51 45 45 46 40 30
49 59 63 65 69 74 78 84 88 88 85 79 75 74 74 79 86 90 90 90 89 86 83 82 80 79 78 74 70 58 45 57 85 91 83 91 100 100 101 100 98 99 100 100 100 100 100 100 101 95 78 63 53 45 41 41 45 53 60 65 68 68 63 56 49 45 45 44 38 37 44 51 52 53 57 58 60 61 61 56 50 49 49 44 33
54 65 69 72 79 85 88 88 84 79 76 76 78 77 75 77 80 82 82 80 78 74 68 65 63 64 68 70 71 68 54 48 72 96 95 93 100 101 100 101 99 99 100 100 100 100 100 101 101 95 82 68 57 48 44 43 45 52 60 64 69 71 68 62 56 52 52 48 42 42 49 54 54 57 60 61 62 64 63 59 54 52 53 49 39
70 80 82 84 88 89 87 83 78 77 79 75 68 62 61 62 60 58 59 58 57 54 49 46 46 47 53 60 65 69 64 49 56 86 101 98 99 101 100 100 100 99 99 100 100 100 100 100 101 96 85 72 60 50 45 44 46 52 59 65 70 73 72 67 61 58 57 50 45 48 54 56 57 60 62 63 64 65 65 62 57 55 56 54 45
95 97 95 93 93 89 84 80 76 71 65 58 54 56 59 59 57 58 60 58 53 45 35 32 36 39 42 51 59 66 70 59 52 73 99 101 99 101 100 100 101 99 100 100 99 100 100 99 101 98 88 75 62 52 46 44 46 52 60 68 73 75 76 71 66 64 59 51 51 56 59 60 62 64 65 65 66 66 66 64 60 57 59 59 52
101 99 95 90 88 85 80 75 70 62 57 58 64 72 77 75 71 72 75 76 67 50 37 34 33 30 32 43 53 60 72 75 68 77 97 101 99 101 100 100 101 100 100 100 99 100 100 99 101 99 90 77 65 54 45 42 46 54 64 72 74 76 78 74 70 68 59 54 60 65 64 64 66 68 68 68 67 66 67 66 61 58 60 62 58
94 90 85 80 77 75 70 68 68 67 68 74 80 86 91 89 84 83 85 82 69 55 53 56 47 38 44 58 66 69 79 90 90 92 99 101 100 101 101 100 101 99 99 100 100 100 100 100 101 100 92 80 68 55 44 42 48 57 67 74 75 77 79 76 74 69 59 60 70 72 68 68 69 70 71 69 68 68 69 69 63 59 61 63 62
85 78 73 70 69 66 65 67 73 79 83 85 87 91 94 91 85 81 75 67 62 62 70 74 65 62 73 83 86 87 92 98 99 99 100 100 100 101 101 101 100 99 100 100 100 100 100 100 100 100 93 82 71 56 44 44 50 58 68 73 76 78 79 78 77 69 62 71 80 76 71 71 72 72 73 72 73 73 72 71 66 61 61 63 64
72 66 63 61 59 64 70 75 80 89 94 93 90 87 83 77 70 64 60 60 65 71 76 79 77 82 92 95 94 96 99 100 99 99 99 100 101 101 101 101 100 100 100 100 100 100 100 100 100 100 94 84 72 56 45 45 52 59 67 74 78 80 80 81 79 68 69 84 88 78 73 73 74 75 75 75 77 76 74 74 70 65 63 64 65
70 69 64 59 59 64 69 73 82 91 93 89 84 76 67 60 57 56 58 66 72 74 76 78 82 90 98 100 98 96 97 99 100 100 99 99 101 101 101 100 100 100 100 100 100 100 100 100 100 100 95 86 72 57 47 46 52 61 69 75 80 81 81 83 78 69 78 95 91 79 75 76 76 77 78 78 79 78 76 75 73 69 66 65 64
80 74 58 49 52 53 53 63 81 92 87 75 67 60 56 56 57 58 61 68 75 80 78 75 83 95 100 99 98 96 96 98 100 100 99 99 101 101 101 100 100 100 100 100 100 100 100 100 100 99 95 87 73 59 50 48 52 63 74 78 81 82 83 83 76 73 88 100 92 81 77 77 80 80 79 79 80 80 79 77 75 74 71 68 66
71 55 40 38 43 44 47 59 71 72 64 55 51 51 54 57 58 59 64 71 79 82 78 75 84 96 96 93 95 96 97 99 100 99 100 99 100 101 101 101 100 99 100 100 100 100 100 100 100 100 95 87 74 60 51 49 52 65 77 81 81 82 85 83 75 77 94 102 93 84 79 80 86 84 79 79 81 82 83 82 79 77 75 75 75
50 35 34 38 41 43 47 53 55 52 49 49 51 53 56 57 59 66 74 79 81 82 81 82 85 88 87 88 93 96 98 99 98 99 100 99 99 101 101 101 100 99 100 100 100 100 100 100 100 100 96 86 73 60 52 48 51 65 79 84 82 82 86 84 77 81 97 103 96 87 82 83 91 90 83 82 85 88 90 88 84 81 78 77 78
37 33 36 39 42 45 48 50 49 49 51 52 53 56 60 61 66 74 80 84 87 86 86 88 87 85 86 91 96 99 99 97 96 99 101 99 99 100 101 101 100 100 100 100 100 100 100 100 100 100 96 86 73 62 53 48 51 64 79 84 82 82 86 86 80 84 98 103 98 91 85 86 95 98 91 88 91 94 95 92 88 86 83 81 80
33 36 37 39 42 43 44 44 41 40 41 42 44 49 55 59 65 73 79 85 88 87 87 89 89 89 93 98 100 100 98 95 96 99 100 100 99 99 101 101 100 100 100 100 100 100 100 100 100 100 95 85 73 64 55 49 50 61 75 82 83 83 86 88 86 88 97 102 98 93 89 88 97 102 98 94 96 98 98 96 91 87 84 84 86
36 38 37 37 36 32 30 28 24 22 22 22 25 28 33 40 48 58 68 76 81 84 86 88 89 92 98 100 100 100 99 97 98 100 99 100 100 99 100 101 100 100 100 100 100 100 100 100 100 100 95 84 73 65 56 49 51 61 73 81 85 86 87 91 93 93 98 100 95 92 92 92 97 102 101 98 99 100 101 99 94 89 84 83 88
39 39 34 28 23 19 16 14 11 11 11 11 12 13 15 19 26 36 49 60 69 78 84 88 90 93 97 99 99 100 100 97 97 100 100 100 100 99 100 100 100 100 100 100 100 100 100 100 100 100 94 83 73 65 55 49 52 61 72 81 87 88 88 92 97 100 102 99 91 89 93 96 99 101 101 100 100 100 99 97 95 91 85 84 89
35 29 22 15 13 10 8 8 8 7 7 7 7 8 8 10 14 22 34 46 58 71 82 90 95 96 96 98 99 99 98 97 97 99 100 100 100 100 100 100 100 100 100 100 100 100 100 100 100 99 93 82 72 64 53 48 52 62 74 83 89 90 89 92 98 102 103 99 93 93 98 101 102 102 101 101 101 99 98 96 95 93 89 91 95
24 18 12 9 8 7 6 6 6 5 6 6 6 6 6 7 10 15 23 35 49 65 78 89 97 100 99 99 99 100 99 97 98 100 100 100 100 100 100 100 100 100 100 100 99 100 100 100 100 99 92 80 70 61 52 49 55 66 78 86 91 93 93 95 99 102 104 102 100 101 103 103 102 102 102 102 101 100 100 99 97 95 94 98 99
13 10 8 7 6 5 5 5 5 5 6 5 5 6 5 6 7 9 15 25 40 59 76 89 98 103 102 100 100 101 99 98 98 100 100 100 100 100 100 100 100 100 100 100 100 100 100 100 101 98 89 76 66 59 52 51 61 74 86 93 97 98 98 98 99 99 97 96 97 100 103 103 101 100 102 103 101 101 102 101 100 98 96 96 94
8 7 6 6 5 5 5 5 5 5 5 5 5 5 5 5 5 7 10 17 31 54 78 93 100 103 102 101 100 100 98 97 99 100 100 100 100 100 100 100 100 100 100 99 100 99 100 101 101 95 84 72 63 59 55 58 69 83 94 100 102 102 101 99 96 92 91 93 97 100 102 102 100 100 102 102 102 102 102 101 101 102 99 95 89
7 6 5 5 5 5 5 4 5 5 4 5 5 4 5 5 5 5 7 10 21 47 78 97 101 101 102 101 100 99 98 98 99 100 100 100 100 100 100 100 100 100 100 99 100 100 100 101 99 91 79 68 63 62 61 66 79 91 99 103 103 101 99 94 89 90 94 98 100 101 100 99 100 102 102 101 100 100 99 97 98 101 102 99 95
5 5 5 5 5 5 5 5 4 4 4 4 4 5 4 4 4 4 5 7 12 34 71 96 100 99 101 100 99 99 99 99 100 100 99 100 100 100 100 100 100 100 100 100 100 100 101 101 96 86 74 66 65 66 69 77 89 98 102 101 99 98 96 92 91 95 100 101 100 99 98 99 100 101 100 99 100 99 97 97 99 101 103 103 101
5 6 5 4 5 5 5 5 4 4 4 4 4 4 4 4 5 3 4 7 7 19 56 90 98 97 100 100 99 100 100 100 100 100 99 100 100 99 100 100 100 100 100 100 100 100 101 100 92 80 70 65 66 71 77 86 96 101 102 101 100 99 98 96 96 98 99 100 101 100 98 98 99 101 101 101 101 100 99 97 97 100 102 103 102
5 6 4 5 6 5 4 5 4 4 4 4 4 4 4 3 4 4 3 6 5 10 40 80 97 96 98 101 101 101 100 100 100 100 100 100 100 99 100 100 100 100 100 100 100 101 101 97 87 75 68 65 67 73 81 91 98 101 101 100 100 101 100 98 98 98 98 100 101 101 100 101 101 102 103 103 101 101 100 98 96 96 96 96 96
5 5 5 5 5 4 4 5 4 4 4 4 3 4 4 3 4 4 3 4 4 5 26 66 94 99 99 103 103 101 100 101 100 100 100 100 100 100 100 100 100 100 100 100 100 101 101 94 83 71 66 65 67 71 81 92 100 101 101 100 100 100 100 99 99 99 99 100 101 101 102 101 99 99 100 100 99 99 99 99 98 96 93 92 92
5 5 6 5 4 5 5 4 4 4 4 4 4 4 4 3 3 4 3 3 4 3 17 54 88 100 102 103 102 101 101 100 100 100 100 100 100 100 100 100 100 100 100 100 100 101 99 92 80 70 64 63 66 72 80 88 94 99 102 102 101 101 101 102 101 101 100 102 103 103 102 100 98 98 97 96 95 94 95 96 97 97 95 94 93
5 5 5 4 4 5 4 4 5 4 3 4 4 3 4 4 3 4 3 3 4 4 14 44 78 97 102 103 101 100 101 101 100 100 100 100 100 100 100 100 100 100 100 100 100 101 98 90 79 70 65 63 66 72 77 81 86 93 95 95 97 100 101 101 103 103 102 102 103 101 100 98 98 96 95 92 91 90 90 90 91 92 92 91 90
5 5 5 5 5 4 5 4 4 4 4 4 4 3 4 4 3 4 4 3 4 7 17 41 71 92 101 102 100 100 101 101 100 100 100 100 100 100 100 100 100 100 101 100 101 102 97 88 78 70 68 68 68 68 73 80 84 85 86 88 92 94 94 96 99 100 98 97 97 97 96 95 94 93 91 90 89 89 89 89 90 91 91 91 89
Wind_Speed
18 19 21 22 23 25 27 28 30 32 33 34 35 36 36 36 36 36 37 37 36 36 36 36 37 38 37 36 36 36 36 36 37 37 38 37 37 37 38 38 38 38 38 38 38 38 38 37 36 35 34 35 36 35 33 32 31 30 31 32 34 34 32 30 28 27 27 27 27 26 27 32 37 40 42 42 42 43 43 43 45 47 49 49 52
19 19 21 22 24 26 28 30 32 33 35 36 36 38 38 38 38 38 38 38 37 37 37 37 38 38 38 37 37 37 37 37 38 38 38 38 38 38 38 39 38 38 38 38 38 38 38 37 36 35 35 35 36 35 34 32 31 30 30 31 32 33 32 30 28 26 25 25 26 25 25 28 32 36 38 41 43 43 43 44 44 45 47 47 47
19 20 21 24 26 29 31 33 34 36 37 38 38 40 40 40 39 39 39 39 39 38 38 39 39 39 38 38 38 38 38 38 38 39 40 39 39 39 39 40 39 39 39 39 38 38 38 38 37 36 35 35 35 35 34 33 31 30 30 30 31 32 32 30 28 26 25 24 25 25 24 26 29 31 34 38 43 44 44 44 44 44 45 46 45
19 21 24 27 30 32 35 36 38 39 40 41 41 42 43 42 41 40 40 41 40 39 39 40 40 40 39 39 39 38 38 38 38 39 39 39 39 40 40 41 41 40 39 39 39 38 38 38 37 36 35 35 35 35 34 33 31 30 29 29 29 30 31 30 27 26 25 24 24 24 24 24 26 28 30 33 39 43 45 44 44 44 44 45 45
22 25 27 30 33 35 37 39 41 42 43 44 44 45 46 45 44 43 42 42 41 40 40 41 41 41 41 40 40 39 39 38 39 39 39 39 39 40 41 42 42 41 40 40 39 38 38 38 38 37 36 35 35 35 34 33 31 30 29 28 28 28 29 29 27 26 25 24 24 24 24 24 24 26 28 30 33 39 43 44 45 45 44 43 44
25 27 30 32 34 36 39 41 43 44 45 46 47 47 47 47 46 46 46 45 44 42 41 42 43 42 42 42 41 41 40 39 40 40 40 40 40 40 41 42 43 43 42 40 39 38 38 38 38 38 36 35 35 35 34 33 31 30 29 28 27 27 27 27 26 25 24 23 24 23 24 25 25 25 27 29 30 33 38 43 45 45 45 43 43
25 28 30 33 35 38 40 42 44 45 46 47 47 47 47 47 47 48 48 48 47 45 44 44 44 44 43 43 42 42 41 40 41 41 41 41 40 41 42 43 43 44 43 41 39 38 38 38 38 38 37 36 35 35 34 33 32 30 29 28 27 26 27 27 26 25 24 23 23 23 23 25 26 26 26 28 29 30 32 37 43 45 45 45 43
27 30 33 35 37 40 42 43 44 45 47 47 47 47 46 46 46 47 48 48 49 48 47 47 46 45 44 44 43 42 40 40 41 41 41 41 41 41 42 43 44 44 44 43 41 39 38 38 38 38 38 37 36 35 35 34 33 32 30 29 28 27 27 27 27 25 24 23 23 23 23 23 25 26 26 28 29 29 29 31 37 42 45 46 44
30 34 37 37 40 42 44 46 46 47 47 47 47 46 45 45 45 46 46 47 48 48 49 49 48 47 46 45 44 43 41 40 41 42 41 41 42 41 42 43 44 45 45 44 42 40 39 38 38 38 38 38 37 36 36 35 34 33 32 30 29 28 27 27 28 27 25 24 23 22 23 23 24 26 27 27 28 29 28 29 31 36 42 45 45
31 36 39 40 42 44 46 48 49 49 48 47 47 45 45 45 46 46 45 45 46 47 48 49 49 49 48 47 45 43 42 42 43 43 41 41 42 42 42 42 43 44 44 44 43 42 40 39 39 38 38 39 38 37 37 36 36 35 34 32 31 29 29 28 28 29 28 26 24 23 23 23 24 25 27 27 27 27 28 29 30 32 35 39 43
34 38 40 41 44 46 48 50 51 51 49 48 47 46 45 45 46 46 44 44 44 45 46 47 48 49 49 48 47 45 44 43 44 44 42 41 42 43 42 42 43 44 44 44 44 43 41 40 40 39 39 39 39 39 38 37 37 36 35 34 33 31 30 30 29 30 30 28 26 25 24 23 24 25 27 27 27 27 27 29 31 32 32 34 38
38 41 42 44 46 48 50 52 53 53 50 49 48 47 47 46 45 45 43 42 43 43 44 46 47 49 49 49 49 47 46 46 45 44 43 42 42 43 43 42 43 43 44 43 43 43 42 41 40 40 40 40 40 40 39 39 38 37 36 35 34 33 32 31 30 30 30 30 29 27 26 24 24 24 26 27 27 26 27 28 30 32 33 32 33
42 44 45 47 49 52 54 55 55 54 53 51 50 50 50 48 46 45 43 42 43 43 43 44 45 47 48 49 50 50 49 49 47 46 45 43 43 44 43 42 43 43 43 43 42 42 42 41 41 40 40 40 40 41 40 40 39 38 37 36 35 34 33 32 31 31 31 31 30 29 28 26 25 25 25 27 27 26 26 27 28 30 32 31 31
45 46 49 51 52 55 56 56 57 56 55 54 53 53 52 50 48 46 44 44 44 44 44 44 44 44 46 48 49 51 51 51 50 49 48 45 44 45 44 43 43 43 43 43 42 42 42 41 41 40 40 40 41 41 41 41 41 40 38 37 36 35 34 32 32 32 32 31 31 31 30 28 27 26 25 26 28 28 26 26 27 29 30 31 30
48 49 51 53 55 57 57 58 59 58 57 55 55 54 53 51 49 47 45 45 45 46 47 46 46 45 46 46 47 49 51 51 51 50 49 47 45 46 45 43 42 43 43 43 42 42 42 41 41 41 40 41 41 41 41 41 41 41 40 38 37 35 34 33 33 33 32 32 32 31 31 30 28 27 26 26 27 28 28 26 26 28 29 29 29
50 52 54 56 57 59 59 60 60 59 58 57 56 55 53 51 49 47 45 44 44 46 47 48 49 49 48 48 47 48 49 51 51 51 50 49 48 48 46 44 43 43 44 43 42 42 42 41 41 40 40 41 41 41 41 41 41 42 41 40 38 37 36 34 34 34 34 33 33 32 32 31 30 28 26 27 27 28 29 28 26 27 28 29 29
52 55 57 58 60 60 61 61 60 59 58 58 57 55 53 50 49 47 46 44 43 44 45 47 48 50 50 50 49 49 49 50 51 51 52 51 50 49 48 44 43 44 44 44 43 42 42 41 41 40 40 40 41 41 41 41 41 42 42 41 40 38 37 36 35 35 35 35 34 34 33 32 31 29 27 27 28 28 29 29 28 27 27 29 29
55 58 59 60 61 61 62 61 60 59 58 58 57 55 52 50 48 47 46 45 44 44 44 45 47 48 49 49 50 49 49 49 50 51 52 53 52 51 49 45 43 44 44 44 43 42 42 41 41 40 40 40 40 40 41 41 41 42 42 42 41 40 39 37 36 36 35 36 35 35 34 33 31 30 28 28 28 29 29 29 29 27 27 28 29
59 61 60 61 61 61 61 61 60 59 58 58 57 55 53 50 48 47 46 46 45 45 45 45 46 47 48 49 50 50 49 49 49 49 51 53 53 52 50 45 43 44 44 44 43 42 41 41 41 40 39 40 40 40 40 40 41 42 42 42 42 41 40 39 38 37 36 36 36 35 35 34 33 31 29 28 29 29 30 29 28 28 27 27 28
62 61 61 60 60 60 60 60 60 60 59 58 57 55 54 53 51 50 49 48 47 47 47 47 48 48 48 49 50 51 50 48 47 47 49 51 52 52 49 45 43 43 44 44 43 41 41 40 40 40 39 39 39 39 39 39 40 41 42 42 41 41 41 40 39 38 37 36 36 36 35 35 33 31 30 29 29 29 30 29 28 28 27 27 27
62 61 61 60 60 60 60 60 61 60 59 57 56 55 55 55 54 53 52 52 50 50 50 50 50 50 50 50 50 50 50 49 47 46 48 49 50 51 48 44 42 43 43 44 42 41 40 39 40 40 39 39 39 38 38 38 38 39 41 41 41 41 40 40 39 38 37 36 36 35 35 35 33 32 30 29 29 30 30 29 28 27 27 27 27
62 61 61 60 60 61 61 61 61 60 58 55 55 57 57 57 56 55 54 54 53 53 52 52 52 52 52 51 50 50 49 49 47 45 46 47 48 49 47 42 41 42 42 42 41 40 39 39 39 40 39 38 38 37 37 37 37 38 40 41 40 40 39 39 38 38 37 36 35 35 35 34 33 32 30 29 29 30 30 29 28 27 26 26 26
61 61 61 60 60 61 61 61 60 59 57 58 61 62 60 59 58 57 56 55 55 55 54 53 53 53 52 52 52 51 49 48 46 45 44 45 46 47 45 41 40 42 41 41 40 39 38 38 39 39 38 37 37 36 36 36 36 37 38 39 40 39 39 38 37 37 36 35 35 34 34 34 33 31 29 28 29 29 30 29 28 27 26 24 25
61 60 60 60 61 61 61 60 59 60 62 65 65 63 60 59 59 59 58 57 56 56 56 56 55 55 54 53 53 53 51 48 46 45 43 43 46 46 43 41 40 40 40 39 39 39 37 37 38 38 37 36 36 35 35 35 35 36 37 38 38 38 38 37 37 36 35 34 33 33 34 33 32 31 28 27 28 28 28 28 28 27 25 23 24
60 59 60 62 62 62 61 61 63 64 65 63 61 61 61 62 61 61 62 62 62 63 64 63 62 61 59 57 56 55 53 50 47 46 44 43 46 45 42 41 40 39 38 38 38 38 36 36 37 37 37 35 35 34 34 34 34 35 35 36 37 37 37 37 36 36 35 33 32 32 33 33 32 30 28 27 27 27 27 27 27 27 25 23 22
58 59 62 63 63 64 64 66 67 66 65 64 63 63 63 62 63 64 65 65 64 64 65 66 65 65 63 60 58 56 55 51 48 47 46 46 46 45 42 41 39 36 37 38 38 37 36 36 36 37 35 34 34 33 33 33 33 33 34 34 35 36 37 36 36 35 34 32 31 32 33 32 31 28 27 26 26 25 25 25 26 26 24 22 21
53 59 63 63 64 65 66 68 68 68 68 67 65 63 60 59 62 62 61 60 58 60 64 65 64 63 62 61 58 56 54 51 47 46 47 47 46 45 43 40 36 34 35 37 37 36 36 36 36 35 34 33 33 33 32 32 32 32 32 33 34 35 36 36 35 34 34 32 31 31 32 31 28 26 26 25 25 24 24 24 25 24 23 21 20
55 60 62 62 63 64 64 64 64 66 66 63 62 61 60 61 63 63 60 58 60 67 71 68 64 63 62 60 58 56 53 49 46 44 46 46 45 44 42 38 34 33 34 35 36 36 36 35 35 33 32 32 32 31 31 31 30 30 31 32 33 34 35 35 35 34 33 31 30 31 31 30 27 25 25 24 23 23 23 23 24 23 22 21 19
61 62 62 62 62 63 62 59 57 58 59 58 59 59 60 64 68 68 65 65 70 77 78 72 65 62 61 58 57 55 51 46 43 42 43 44 42 41 40 36 32 32 33 34 34 35 35 35 33 32 31 31 31 30 30 30 29 29 30 31 32 33 34 34 34 33 31 30 30 30 30 28 25 24 23 22 21 21 21 23 24 23 21 20 19
62 61 60 60 60 60 59 56 53 54 56 56 56 57 59 65 70 71 72 75 78 80 77 70 63 59 57 54 52 51 48 44 42 42 43 43 40 39 37 34 31 30 31 32 33 34 34 34 32 30 29 29 29 29 29 29 29 29 29 30 31 32 33 33 33 32 30 29 29 30 28 27 24 22 21 20 20 20 21 22 23 23 20 19 18
59 59 60 60 58 57 55 54 53 53 55 56 56 58 62 66 70 74 76 77 77 75 70 64 59 54 52 51 51 50 47 43 41 41 43 42 39 38 35 33 30 28 29 31 33 33 33 33 31 29 28 28 28 28 29 29 29 29 29 29 30 31 32 32 32 31 29 29 29 29 27 26 23 21 20 19 19 20 21 21 22 22 20 19 17
58 60 61 60 58 57 57 58 57 55 54 56 58 61 65 69 72 73 73 72 71 69 64 60 55 50 47 49 51 52 49 45 42 41 42 40 38 37 35 31 27 26 28 31 32 32 32 32 30 28 27 27 27 28 29 29 29 28 28 28 29 30 31 31 31 30 28 29 29 27 26 25 23 20 19 18 18 20 21 21 21 21 20 19 17
60 61 61 60 59 60 60 59 56 53 54 58 62 65 67 68 69 69 68 67 66 64 61 57 50 45 45 48 50 52 51 48 45 42 40 38 37 37 34 30 26 26 28 30 30 31 32 31 29 27 26 26 26 27 28 29 28 28 28 28 29 30 31 31 30 29 28 29 29 27 26 25 22 20 19 17 17 18 19 18 19 19 19 18 17
64 64 64 62 62 62 60 57 54 56 60 63 65 66 66 65 66 65 64 63 62 61 59 54 48 44 46 48 49 51 52 50 46 42 39 37 36 37 34 29 26 26 28 28 29 30 31 30 28 26 25 25 24 26 27 28 28 28 28 29 28 29 30 30 30 29 29 29 29 27 25 24 22 21 19 17 16 17 17 17 17 18 18 17 16
68 67 65 63 63 63 62 59 60 63 65 65 65 65 65 64 64 63 62 61 60 59 57 53 49 48 49 49 50 52 53 50 45 41 38 36 36 38 35 30 26 26 27 27 27 28 29 29 28 26 24 23 24 26 27 27 28 28 28 29 28 29 30 30 30 29 29 30 29 27 25 24 22 21 19 17 16 16 17 17 17 16 17 17 16
68 66 64 63 63 63 62 62 64 64 64 65 65 64 64 64 62 61 61 59 58 57 56 53 52 52 52 51 52 54 52 47 42 40 38 35 34 37 37 31 28 27 27 26 26 27 29 28 27 25 24 22 24 25 26 26 27 27 28 29 28 28 29 29 30 30 30 31 31 28 25 23 22 21 20 19 18 17 18 18 18 17 17 16 15
64 62 62 62 61 60 61 62 62 62 63 63 63 63 63 63 61 60 59 58 57 56 55 53 53 53 52 51 51 50 47 43 41 39 37 34 32 35 36 34 30 28 26 26 26 27 28 27 25 24 23 22 23 25 25 26 26 27 28 28 28 28 28 29 29 30 31 33 32 29 26 24 22 21 21 21 21 20 20 20 19 18 17 16 14
61 61 60 59 59 60 60 61 61 61 61 61 62 62 62 60 60 59 57 58 58 56 54 53 52 51 49 47 46 45 43 41 39 37 35 32 30 31 34 34 31 28 26 25 25 25 26 25 24 24 22 22 23 24 24 25 25 26 27 27 27 27 28 28 29 30 32 34 34 31 27 25 23 22 22 23 24 24 23 22 21 20 19 16 15
59 59 59 59 59 60 59 60 60 60 60 61 61 61 60 59 59 58 58 58 58 57 56 55 52 50 48 45 44 42 41 39 37 34 32 31 29 28 31 33 31 29 26 24 24 24 24 24 24 23 22 21 22 23 24 24 25 25 26 27 27 27 27 28 29 30 32 35 34 31 28 26 23 22 24 25 27 27 26 25 23 23 22 18 16
58 57 58 59 59 60 60 60 60 60 60 61 60 60 60 60 59 59 58 58 58 58 58 56 54 51 48 46 43 41 38 36 34 33 31 29 27 25 27 30 31 28 26 24 23 23 23 23 23 21 20 20 21 23 23 23 24 24 25 26 27 26 27 27 28 30 32 33 32 30 29 27 25 25 26 27 28 28 28 27 26 26 25 21 19
58 59 59 59 58 59 60 59 60 61 61 61 61 61 60 60 60 60 59 59 59 58 58 58 55 51 48 45 42 39 36 33 31 31 29 27 24 23 25 28 29 27 25 23 21 21 21 22 21 20 19 19 21 22 22 22 22 23 24 25 25 25 25 26 27 28 29 30 30 30 29 28 27 27 28 28 28 28 28 29 28 28 26 23 22
57 58 58 57 57 58 58 59 60 60 61 61 61 61 61 61 61 60 60 60 60 59 59 58 54 50 46 42 39 36 34 31 29 28 27 24 22 22 24 27 28 26 23 21 19 19 20 20 20 18 18 19 20 21 21 21 21 22 23 24 24 24 25 26 27 28 28 27 27 27 27 27 28 28 29 28 28 27 27 29 29 28 27 26 26
56 56 56 57 57 57 59 60 60 61 62 62 62 61 62 62 62 62 62 62 62 61 60 57 52 48 43 39 36 34 32 30 28 27 25 22 20 20 22 25 26 24 22 19 18 18 19 19 18 17 17 18 19 20 20 20 20 21 22 24 24 24 25 27 28 27 26 24 23 24 26 27 28 29 28 28 28 28 29 30 29 28 29 30 28
55 55 56 56 57 58 60 61 61 62 62 62 62 63 63 63 64 63 63 62 62 62 60 55 49 44 40 36 33 31 30 29 27 26 23 20 18 19 21 24 25 23 20 18 17 17 18 17 16 16 16 17 18 19 19 18 19 20 22 23 24 26 27 28 26 24 23 23 23 25 27 28 28 28 28 27 28 28 30 31 30 29 30 30 29
56 56 56 57 59 60 61 61 62 62 63 62 63 63 63 63 63 63 63 62 61 61 59 53 46 41 38 35 32 30 29 28 26 24 21 18 16 18 21 23 23 21 18 17 16 17 16 16 15 15 15 16 17 18 17 17 18 20 22 24 25 26 26 25 23 23 23 24 25 26 26 26 26 26 26 27 27 28 29 30 30 30 29 29 29
56 56 57 58 59 60 61 62 62 62 63 62 62 63 63 63 63 63 62 61 60 60 58 52 45 39 36 33 31 29 28 27 25 22 19 16 16 18 21 22 22 19 17 16 16 15 15 15 15 14 15 16 17 17 16 17 18 20 22 24 24 25 24 24 24 24 24 25 25 25 25 25 26 26 26 26 27 28 29 30 30 30 30 30 30
57 58 58 59 60 61 62 62 62 63 63 63 62 63 63 63 62 62 61 60 59 59 56 51 45 39 35 32 30 28 27 26 24 20 17 15 16 18 20 21 20 18 16 15 15 15 14 14 14 14 15 16 16 16 16 17 18 20 22 23 24 25 25 25 25 25 25 25 25 25 25 26 27 27 27 27 28 28 29 30 30 30 31 31 31
57 59 59 60 60 61 62 63 63 63 63 63 63 63 63 63 62 61 61 61 60 58 55 51 45 39 35 32 29 27 26 24 22 19 16 15 15 18 20 20 19 17 15 14 14 14 14 13 14 14 15 16 16 16 16 16 17 19 21 23 24 25 26 25 26 26 26 26 25 26 26 27 28 28 29 29 29 29 30 30 31 31 32 32 32
57 58 59 60 61 61 62 63 63 63 64 64 65 65 64 63 63 62 61 61 60 59 55 51 45 40 35 31 28 26 25 23 21 18 15 15 15 18 20 20 18 16 14 14 14 14 13 13 14 15 15 15 15 14 15 16 17 17 19 21 22 23 24 24 25 25 25 26 26 26 27 27 28 28 29 29 28 29 29 30 31 31 32 32 33
57 58 59 60 61 61 62 63 63 64 64 65 65 65 64 64 64 62 61 60 60 58 55 50 45 40 36 32 28 25 23 22 19 16 15 15 16 18 19 19 18 15 14 14 14 14 13 13 13 14 15 14 14 14 14 15 15 16 17 17 17 18 19 20 21 22 24 24 25 25 25 25 26 27 27 27 26 27 28 29 29 30 30 31 32
57 58 59 59 60 60 61 62 63 64 64 64 65 65 65 64 63 62 60 58 58 57 54 50 45 41 36 33 29 25 22 20 17 15 14 15 17 18 19 19 17 15 14 14 14 13 13 13 13 14 13 13 13 14 14 14 15 16 15 14 14 14 15 16 18 20 21 21 21 22 23 23 24 25 25 25 26 26 26 27 27 28 28 29 30
Wind_Direction
345 343 341 342 342 340 340 338 337 336 332 329 325 322 320 318 316 316 314 313 313 312 311 310 310 309 310 311 311 311 313 313 313 314 314 314 315 315 314 312 309 306 304 300 297 293 291 290 291 291 291 293 294 296 298 300 301 301 300 299 299 299 300 302 303 301 299 296 291 282 272 267 265 262 256 254 257 257 255 252 250 249 249 248 245
346 345 344 344 344 343 341 340 338 337 334 330 327 323 320 318 316 314 312 312 312 312 311 310 309 309 309 310 310 310 311 312 312 312 312 313 315 315 314 312 309 306 303 300 296 292 290 288 289 289 290 291 292 294 296 298 299 300 300 299 298 298 299 301 302 301 300 297 294 286 276 267 265 265 260 255 255 257 257 255 253 251 250 250 247
346 346 345 344 342 341 340 338 336 335 333 330 327 324 321 318 315 312 310 309 310 310 310 309 308 308 309 309 310 310 311 311 311 311 311 312 314 314 313 311 309 306 303 299 296 291 288 286 286 287 287 288 290 291 293 295 297 298 299 299 298 298 298 300 300 300 300 298 296 292 283 272 265 264 263 259 257 256 257 256 254 253 252 251 249
342 343 343 342 340 338 337 336 334 333 332 329 325 323 320 317 313 310 308 307 307 307 308 307 307 307 308 309 309 310 310 310 310 309 309 311 312 312 311 310 309 307 303 299 295 291 287 284 283 284 284 285 287 289 291 292 294 296 297 298 298 299 298 299 299 299 299 298 296 295 290 282 272 266 263 261 260 257 257 256 255 254 253 252 251
341 341 340 339 338 336 335 334 333 331 330 327 324 322 320 316 312 309 307 306 305 305 305 305 305 306 307 308 308 309 309 309 309 308 308 309 310 310 310 309 308 307 304 299 295 291 287 283 281 281 281 282 283 285 287 289 291 292 294 296 297 298 298 298 297 296 296 295 295 295 293 288 281 273 266 261 261 259 257 257 256 255 254 253 252
342 341 339 338 335 334 333 332 331 329 328 326 324 321 318 315 312 309 306 305 304 303 303 302 303 304 305 305 306 306 307 308 307 308 308 308 308 308 308 307 307 306 304 300 296 291 286 282 280 279 278 279 280 281 283 285 287 289 290 292 294 296 297 297 296 295 293 291 291 292 291 290 287 280 273 265 260 258 257 257 257 257 256 255 253
339 338 336 335 333 332 332 331 329 327 326 325 323 319 317 314 311 309 306 305 304 302 301 301 301 302 302 302 303 303 304 305 305 306 307 308 308 307 306 306 305 304 303 301 297 292 287 281 278 276 276 276 277 278 279 280 282 284 286 288 290 292 294 295 295 294 293 290 288 287 286 287 287 284 279 273 264 256 255 257 258 257 257 256 254
334 335 333 332 333 332 331 331 329 327 326 324 323 320 317 313 310 308 306 304 303 301 301 300 299 299 299 299 300 301 300 300 301 302 305 306 306 306 305 304 303 302 302 300 298 294 289 283 277 274 274 274 274 274 275 276 277 279 281 283 286 288 290 292 293 293 292 291 289 287 285 284 283 283 282 280 274 263 254 253 256 258 257 256 255
330 332 331 331 331 330 329 330 329 328 327 325 324 321 318 315 311 309 307 305 303 301 300 299 297 296 296 297 297 298 298 297 297 299 302 303 304 305 304 304 302 301 300 299 297 294 291 286 279 274 271 271 271 271 272 273 274 275 277 279 281 283 286 288 289 291 291 291 291 288 287 284 281 282 282 282 281 275 264 255 252 254 256 256 255
326 328 329 329 329 329 329 329 329 329 329 327 325 322 319 316 313 311 310 307 304 302 300 298 296 295 295 295 295 295 295 295 296 297 299 300 301 302 302 301 301 300 299 298 296 294 291 287 282 276 271 268 268 269 270 270 271 272 274 275 277 279 282 284 286 288 290 290 290 290 289 286 283 281 281 281 282 281 275 267 258 252 252 255 255
325 326 327 328 328 328 328 328 330 330 329 328 326 323 320 317 314 312 312 309 306 303 300 298 296 295 295 295 294 293 292 292 293 295 297 298 298 299 299 299 299 299 299 297 295 293 290 286 282 277 272 268 266 266 267 268 269 269 271 272 275 277 279 281 283 284 287 289 290 290 290 289 287 285 283 282 283 283 281 275 268 260 252 250 253
327 327 326 327 327 327 328 329 330 330 330 328 326 324 321 318 315 312 312 310 307 305 303 300 297 296 295 293 293 292 289 288 290 292 294 295 296 297 297 298 298 298 298 296 293 291 288 285 282 279 274 269 265 264 265 266 267 267 268 270 272 274 276 278 280 281 284 287 289 290 290 290 290 289 287 285 285 285 283 278 273 267 259 251 250
328 328 328 328 328 328 329 330 330 330 330 329 327 325 322 320 316 312 311 309 307 306 304 301 299 297 294 292 291 290 288 287 288 288 290 292 293 294 296 297 297 298 298 296 292 288 286 284 281 279 275 270 265 263 263 263 265 266 266 268 269 271 274 276 278 279 281 283 286 288 290 290 291 291 290 288 287 285 284 281 276 270 264 257 251
329 329 329 329 328 329 329 330 330 330 329 329 327 326 323 321 318 314 311 308 306 305 304 302 300 298 296 294 292 290 289 289 288 288 288 288 290 291 293 295 297 298 298 296 292 287 284 282 280 278 275 271 266 263 261 261 262 264 265 266 267 269 272 274 276 278 279 281 283 285 287 289 291 292 293 292 289 287 286 285 279 271 265 261 256
329 328 328 328 328 329 329 329 329 329 329 328 327 326 323 322 319 316 313 310 306 304 302 302 301 300 298 296 294 291 289 289 289 288 287 286 286 287 290 293 296 297 297 296 292 287 283 280 278 277 275 272 268 264 261 260 260 262 263 264 265 267 269 272 274 276 278 279 280 283 285 287 289 292 294 294 292 289 288 288 284 274 266 261 259
328 327 327 328 328 328 328 328 328 328 328 327 327 326 324 323 321 319 316 312 309 305 303 301 301 300 299 298 297 293 290 289 288 288 286 284 283 284 287 290 294 296 296 296 293 288 283 279 277 276 275 272 269 266 263 260 259 259 261 262 264 266 268 270 272 274 276 278 279 281 282 285 287 290 293 294 294 291 289 289 287 279 269 262 259
326 326 327 328 328 328 328 328 327 327 327 327 327 326 325 324 322 320 318 315 312 308 305 302 301 300 300 300 299 297 294 291 288 287 286 283 281 282 284 286 290 294 295 295 294 290 285 280 277 275 274 272 270 267 264 262 260 259 259 260 262 264 266 267 270 272 275 277 278 280 281 282 285 288 291 293 293 292 289 289 289 284 273 265 260
325 327 328 328 327 327 326 326 326 327 327 327 327 326 326 325 323 321 319 317 314 311 308 305 303 302 302 302 301 299 297 294 291 288 286 284 282 282 282 283 287 291 293 294 293 292 287 281 277 274 273 272 269 267 265 263 261 260 259 259 260 262 264 265 268 270 273 275 277 279 280 281 283 285 288 290 292 292 289 289 289 286 277 268 263
327 328 329 328 327 326 326 326 326 327 327 327 328 327 326 324 322 320 318 316 315 313 311 308 306 304 303 303 303 302 300 297 294 289 286 285 283 281 280 280 283 288 291 292 292 292 288 282 277 274 272 271 268 266 265 263 261 260 259 258 258 260 262 263 266 268 271 274 276 278 279 280 281 283 285 288 291 291 290 288 289 288 281 271 266
329 329 328 327 326 326 326 326 326 327 327 328 329 328 325 322 320 318 317 316 316 314 313 312 310 308 306 304 302 301 301 299 296 292 288 286 284 281 279 278 280 285 289 291 291 291 288 282 277 275 272 270 268 266 265 264 262 260 259 259 258 259 260 262 264 266 268 271 274 276 277 278 279 281 283 286 289 290 290 289 289 289 283 274 268
328 327 326 326 325 325 326 326 327 327 328 329 330 327 324 321 319 317 317 316 316 315 314 314 313 312 311 307 303 300 298 297 296 293 290 288 285 282 279 275 277 282 287 289 290 291 289 283 277 274 272 269 267 266 265 264 262 260 259 258 258 258 259 260 262 264 266 268 270 273 274 276 277 278 281 284 287 289 290 289 289 289 286 277 271
326 326 324 324 325 325 326 326 327 327 328 329 329 326 323 319 317 316 316 316 316 315 314 313 312 312 311 310 306 301 297 293 292 291 289 288 287 283 278 273 274 279 285 288 289 290 289 284 278 274 271 269 267 265 264 264 263 260 259 258 257 257 258 259 260 262 264 265 267 269 271 273 275 276 278 282 286 288 289 289 289 289 287 279 273
325 325 324 325 326 326 327 326 327 328 327 327 326 324 322 319 316 314 314 314 315 314 313 313 312 310 309 309 307 304 298 291 287 287 287 286 286 283 276 271 272 276 283 287 288 288 288 284 279 274 271 269 267 265 264 263 263 261 259 257 256 256 257 258 259 260 262 263 264 266 268 271 272 273 276 281 284 287 288 289 288 289 288 281 273
326 325 325 326 327 327 327 327 328 327 326 325 325 324 323 320 318 316 315 316 316 316 315 314 314 312 310 309 307 305 301 293 285 283 283 283 284 281 275 269 270 274 282 287 287 287 286 284 279 274 272 269 266 264 263 263 263 262 260 257 256 256 256 257 257 258 260 261 261 263 265 268 270 271 275 278 281 285 287 287 286 288 288 282 273
326 325 326 327 328 328 328 327 326 325 324 325 325 324 322 320 319 318 316 315 315 315 316 315 314 312 310 309 307 304 302 297 287 280 280 280 280 279 273 268 268 273 281 285 285 285 284 281 277 273 271 269 266 264 263 263 263 263 261 258 256 255 254 255 256 257 258 259 259 260 262 265 267 269 273 276 279 282 284 283 284 286 288 284 274
328 327 328 329 329 329 327 326 325 325 325 325 325 324 322 320 320 318 317 316 315 316 317 317 316 314 310 307 305 303 301 298 290 282 278 277 277 276 271 266 267 273 280 283 284 284 283 279 275 272 270 268 266 264 263 262 263 263 262 259 255 253 252 253 254 255 256 257 257 258 260 263 265 268 271 274 276 279 280 279 281 284 287 285 277
329 328 329 330 329 328 327 326 327 326 326 326 327 327 325 323 322 320 319 319 318 319 321 319 317 315 312 308 304 301 298 296 292 284 279 277 274 272 268 264 266 272 278 282 283 283 281 278 274 272 270 268 265 264 263 262 262 263 262 258 254 251 250 251 251 253 254 255 254 256 258 261 264 266 269 272 274 275 275 275 276 280 284 285 281
327 328 328 327 327 326 326 326 326 326 327 329 330 328 325 324 323 321 321 320 319 320 322 321 318 317 315 311 307 303 298 294 290 285 281 279 274 269 266 263 264 271 277 281 282 281 280 277 274 271 269 267 266 264 264 263 263 262 260 256 252 249 248 248 249 251 252 252 252 254 257 260 261 263 267 270 270 271 271 270 271 276 280 284 283
326 326 326 326 326 325 325 325 325 326 327 329 329 327 324 323 322 321 321 320 319 321 323 323 321 318 315 312 309 305 300 293 289 285 283 281 274 266 264 262 264 270 277 281 281 280 280 277 274 270 268 267 266 265 264 263 262 261 258 254 250 247 246 247 248 249 249 249 251 253 256 258 258 260 263 265 266 268 268 267 268 271 275 280 282
325 326 325 325 324 323 324 324 324 325 327 328 328 326 323 322 320 319 320 320 321 322 323 323 320 317 315 315 314 313 306 298 291 286 285 282 272 263 261 260 263 270 277 281 281 279 279 276 273 270 266 266 266 265 264 263 261 259 256 253 249 246 245 246 247 248 246 247 249 252 255 255 255 257 259 260 262 265 266 266 266 268 271 275 279
326 326 325 324 323 323 324 324 325 325 325 325 325 322 320 319 318 319 320 321 322 323 322 321 318 317 318 318 320 321 317 308 299 292 289 283 269 259 258 258 263 271 277 279 279 278 277 275 272 269 266 265 265 264 263 262 261 259 256 252 248 246 245 245 246 245 243 245 248 251 252 252 252 253 254 255 258 260 261 263 264 266 267 270 274
326 326 325 324 324 324 323 323 324 323 323 322 321 319 319 319 320 321 322 323 323 323 322 320 318 319 318 315 316 321 321 316 308 300 295 286 268 257 256 257 263 272 275 277 278 277 276 274 270 268 265 264 264 263 262 262 261 259 255 250 247 245 244 243 244 242 240 243 248 249 250 249 249 250 249 250 254 256 258 260 263 264 265 265 268
325 325 325 325 324 323 324 323 321 319 320 321 320 320 321 321 321 323 324 324 324 323 322 321 319 317 315 312 313 318 320 319 313 306 300 289 269 258 257 258 264 270 273 277 278 276 274 272 270 267 264 262 262 261 261 261 260 258 254 249 245 243 243 242 241 239 237 242 247 248 248 247 247 248 247 246 248 250 254 258 260 262 263 263 266
326 326 326 325 325 325 325 324 321 320 321 322 322 322 322 321 322 324 324 324 324 323 323 323 320 314 312 313 313 316 318 318 314 308 304 293 273 259 258 259 262 268 273 277 277 275 274 272 269 266 263 261 261 260 259 260 259 257 253 248 244 241 240 240 239 235 235 241 246 247 246 245 245 246 245 244 244 246 251 255 256 256 256 256 260
326 326 326 326 326 326 325 324 323 323 324 323 323 323 322 322 323 324 324 324 323 322 322 322 318 315 314 315 314 315 317 316 312 307 304 297 279 264 260 260 261 266 272 274 274 273 273 271 268 265 262 261 260 258 258 258 258 256 252 248 244 240 238 238 236 233 234 240 245 246 245 244 244 245 244 244 243 245 251 254 253 252 251 250 250
326 326 326 326 326 326 325 325 325 325 325 324 324 323 322 322 323 323 324 324 323 322 321 319 317 316 317 315 314 315 315 314 310 306 304 299 285 269 264 264 262 263 269 272 272 272 271 270 268 264 262 259 257 257 257 256 256 254 250 247 244 240 237 236 234 232 233 238 243 244 244 242 242 243 243 242 243 245 250 254 253 250 250 251 253
325 325 325 326 327 327 328 328 328 327 327 325 325 324 323 323 324 323 323 324 324 324 323 321 319 318 317 315 314 314 314 311 308 306 304 301 288 273 269 269 264 261 265 269 269 270 271 270 267 263 260 257 256 257 256 255 255 253 250 247 244 240 236 234 232 232 233 237 241 243 243 240 239 239 239 239 242 245 249 253 253 252 250 250 254
325 325 327 329 330 331 330 330 329 328 327 326 326 325 325 325 324 324 324 324 324 325 326 324 323 321 318 316 315 313 312 310 307 305 304 301 291 276 271 270 264 259 262 266 267 270 271 269 266 262 259 257 256 257 257 256 255 253 250 246 243 240 237 233 231 231 233 237 240 241 242 240 236 236 235 237 242 246 248 250 254 256 254 251 252
326 327 329 331 331 331 330 329 329 328 327 327 327 326 326 326 326 325 325 324 325 326 326 326 325 323 320 317 314 312 310 308 307 305 303 299 292 280 272 268 263 258 260 263 265 268 269 267 264 261 259 257 257 258 257 256 254 252 249 245 242 239 236 234 231 230 232 237 239 240 241 240 235 231 230 233 240 245 247 249 251 255 257 256 254
329 331 331 331 331 330 329 330 329 329 328 328 329 329 329 328 328 327 326 325 325 325 325 325 325 323 320 317 314 311 309 307 305 305 303 297 290 281 272 266 261 257 258 261 264 267 267 265 263 260 259 257 257 258 257 255 253 250 247 244 241 239 237 235 234 232 233 237 240 241 242 240 236 230 226 229 235 242 248 250 250 251 255 257 256
331 331 330 330 330 330 330 330 330 330 330 331 331 332 331 331 329 328 327 326 326 325 324 324 324 323 320 317 314 311 308 306 304 304 301 295 287 278 270 264 258 255 256 259 263 265 264 263 261 259 258 257 258 258 257 255 253 249 246 243 241 239 237 237 237 236 235 237 238 239 241 241 237 232 229 230 233 238 244 250 252 252 252 251 251
331 330 329 329 331 331 331 331 331 332 332 332 332 332 332 332 331 330 329 328 327 326 324 323 323 322 320 317 315 311 307 305 304 302 299 292 283 273 266 260 256 253 254 257 261 263 262 261 260 258 257 257 258 258 256 254 251 246 243 241 239 237 237 238 238 238 238 238 237 238 239 240 238 235 233 233 234 236 240 246 251 254 255 251 248
330 329 329 330 331 331 331 332 332 332 332 332 332 332 333 333 332 331 331 330 329 328 327 325 324 322 319 317 314 309 305 303 303 301 296 289 279 269 263 257 252 250 252 255 259 261 260 258 258 257 256 256 256 256 254 252 248 243 239 237 237 236 236 237 239 240 241 241 239 237 236 237 237 238 237 236 237 238 240 243 245 249 253 254 253
329 329 330 331 331 331 332 332 332 332 332 332 332 333 333 332 332 332 332 332 332 331 330 329 326 323 320 317 313 309 305 303 302 300 293 284 273 265 259 253 249 248 250 253 256 256 256 256 255 254 254 255 254 253 251 248 244 239 235 234 233 233 235 237 240 242 242 241 238 236 236 237 238 239 239 239 239 239 241 243 245 247 250 254 256
330 330 331 332 331 332 332 331 332 332 332 333 333 333 332 332 332 333 333 332 333 333 332 331 328 325 322 318 313 309 305 304 304 300 291 279 265 257 252 248 246 246 247 249 251 253 253 252 252 252 252 252 251 250 248 244 240 235 233 232 233 235 238 241 242 241 240 239 239 239 240 240 240 240 240 240 240 241 242 243 245 247 248 250 252
330 331 331 331 331 331 331 331 332 332 332 333 333 332 332 332 332 332 332 332 333 333 334 333 330 327 324 319 315 312 308 306 306 300 287 272 259 251 247 244 244 243 244 246 248 250 249 249 250 250 249 248 247 245 242 239 235 233 233 233 235 238 240 241 241 240 240 241 242 243 243 243 243 242 241 241 240 241 243 244 245 246 247 249 249
331 332 331 331 331 331 331 332 332 332 333 333 333 332 333 333 333 332 332 332 332 333 335 335 332 328 326 322 318 315 312 310 307 298 282 266 254 247 243 241 241 240 240 243 246 246 246 247 248 247 246 244 242 240 238 235 232 231 231 233 234 236 238 240 241 243 244 244 245 244 244 244 243 242 242 241 242 242 244 246 247 247 248 249 250
332 332 331 332 332 332 332 333 333 333 334 333 333 333 333 333 333 333 333 332 333 334 335 336 333 330 327 324 320 317 314 311 306 295 277 260 248 243 240 238 238 237 236 239 243 243 243 244 246 245 243 241 239 239 238 234 231 230 230 232 233 235 237 240 242 245 247 248 248 246 245 244 244 244 243 243 243 244 246 247 248 249 250 250 251
332 332 332 333 334 334 333 333 334 334 334 334 334 334 334 334 334 334 334 333 333 333 335 336 334 331 327 324 320 317 314 310 304 291 273 256 244 239 237 236 235 233 232 236 238 239 239 241 244 244 242 240 239 239 239 237 234 231 230 230 232 234 237 239 242 245 247 249 248 247 246 246 246 246 246 245 245 245 246 247 248 249 250 250 251
332 333 333 335 335 334 334 334 335 335 335 335 334 334 334 335 335 335 334 333 333 333 334 335 334 332 328 323 320 316 312 308 300 285 267 251 241 236 235 235 233 229 230 233 235 236 237 238 241 243 243 242 241 241 241 242 240 237 235 234 233 234 235 235 236 239 241 243 245 246 246 246 245 245 246 246 245 245 245 246 247 248 249 249 249
333 333 334 335 335 334 335 335 335 335 335 335 334 335 335 336 335 335 335 334 333 332 333 334 333 332 328 323 318 314 310 305 294 277 260 247 239 235 234 234 230 226 228 232 234 234 234 236 239 241 242 243 244 244 246 246 245 244 242 240 237 235 233 230 231 234 237 240 242 243 243 244 244 243 244 244 244 244 244 245 245 246 247 248 248